User: anonymous   Login
Location: Northcutt
(34.7304°N, 84.4305°W)
Time: 04:44:33
(UTC+00:00)
Language:

Explorer 7 - Orbit

View from above orbital plane
View from above orbital plane
View from above satellite
View from above satellite

Ground track
Ground track

The orbit data is extracted from the following two-line orbital elements,

1 00022U 59009A   23342.53864823  .00005759  00000-0  37503-3 0  9997
2 00022  50.2792 246.5847 0120897  85.1366 276.3375 15.03501576660539
Epoch (UTC): 08 December 2023 12:55:39
Eccentricity: 0.0120897
inclination: 50.2792°
perigee height: 472 km
apogee height: 640 km
right ascension of ascending node: 246.5847°
argument of perigee: 85.1366°
revolutions per day: 15.03501576
mean anomaly at epoch: 276.3375°
orbit number at epoch: 66053

The dashed part of the orbit path shows where the satellite is in the earth's shadow,  

DLR